Tracking 32407 objects as of 5-Dec-2025
HD Live streaming from Space Station
objects crossing your sky now

ANGOSAT 2

Track ANGOSAT 2 now!


NORAD ID: 54033
Int'l Code: 2022-131A
Perigee: 35,788.1 km
Apogee: 35,800.5 km
Inclination: 0.0 °
Period: 1,436.1 minutes
Semi major axis: 42165 km
RCS: Unknown
Launch date: October 12, 2022
Source: (AGO)
Launch site: TYURATAM MISSILE AND SPACE COMPLEX (TTMTR)
Your satellite tracking list
Your tracking list is empty




NASA's NSSDC Master Catalog

Two Line Element Set (TLE):
1 54033U 22131A   25338.57652174  .00000150  00000-0  00000+0 0  9997
2 54033   0.0184  55.7859 0001468 240.3664   8.0549  1.00269918 11524
Source of the keplerian elements: AFSPC